EN

Hourly Weather Aiud

Today, 24 October, Saturday

Time Temperature Precipitation Wind Pressure Humidity
00:00 +13°C° 0 mm 1 mps 739 mmHg 56%
01:00 +13°C° 0 mm 1 mps 739 mmHg 56%
02:00 +13°C° 0 mm 1 mps 739 mmHg 56%
03:00 +13°C° 0 mm 1 mps 738 mmHg 57%
04:00 +12°C° 0 mm 1 mps 738 mmHg 59%
05:00 +12°C° 0 mm 1 mps 738 mmHg 60%
06:00 +13°C° 0 mm 1 mps 738 mmHg 60%
07:00 +13°C° 0 mm 1 mps 738 mmHg 61%
08:00 +13°C° 0 mm 1 mps 738 mmHg 62%
09:00 +15°C° 0 mm 1 mps 738 mmHg 59%
10:00 +17°C° 0 mm 2 mps 738 mmHg 55%
11:00 +19°C° 0 mm 3 mps 739 mmHg 52%
12:00 +19°C° 0 mm 3 mps 739 mmHg 54%
13:00 +19°C° 0 mm 3 mps 739 mmHg 57%
14:00 +19°C° 0 mm 3 mps 739 mmHg 59%
15:00 +19°C° 0 mm 2 mps 738 mmHg 63%
16:00 +19°C° 0 mm 1 mps 738 mmHg 66%
17:00 +18°C° 0 mm 1 mps 738 mmHg 70%
18:00 +16°C° 0 mm 1 mps 738 mmHg 71%
19:00 +16°C° 0 mm 1 mps 738 mmHg 72%
20:00 +14°C° 0 mm 0 mps 738 mmHg 74%
21:00 +15°C° 0 mm 1 mps 738 mmHg 74%
22:00 +14°C° 0 mm 1 mps 738 mmHg 75%
23:00 +14°C° 0 mm 1 mps 738 mmHg 75%

Tomorrow, 25 October, Sunday

Time Temperature Precipitation Wind Pressure Humidity
00:00 +14°C° 0 mm 1 mps 738 mmHg 76%
01:00 +14°C° 0 mm 1 mps 738 mmHg 76%
02:00 +14°C° 0 mm 1 mps 738 mmHg 76%
03:00 +14°C° 0.2 mm 1 mps 737 mmHg 79%
04:00 +13°C° 0.2 mm 1 mps 737 mmHg 83%
05:00 +13°C° 0.2 mm 1 mps 737 mmHg 86%
06:00 +13°C° 0 mm 1 mps 737 mmHg 87%
07:00 +13°C° 0 mm 1 mps 737 mmHg 88%
08:00 +13°C° 0 mm 1 mps 737 mmHg 89%
09:00 +14°C° 0 mm 1 mps 737 mmHg 85%
10:00 +15°C° 0 mm 1 mps 737 mmHg 81%
11:00 +16°C° 0 mm 1 mps 737 mmHg 78%
12:00 +16°C° 0 mm 1 mps 737 mmHg 75%
13:00 +18°C° 0 mm 1 mps 737 mmHg 73%
14:00 +18°C° 0 mm 1 mps 737 mmHg 71%
15:00 +16°C° 0 mm 1 mps 736 mmHg 73%
16:00 +15°C° 0 mm 0 mps 736 mmHg 75%
17:00 +14°C° 0 mm 0 mps 736 mmHg 77%
18:00 +14°C° 0.1 mm 0 mps 736 mmHg 79%
19:00 +14°C° 0.1 mm 0 mps 736 mmHg 81%
20:00 +14°C° 0.1 mm 0 mps 737 mmHg 82%
21:00 +14°C° 0.1 mm 0 mps 737 mmHg 84%
22:00 +13°C° 0.1 mm 0 mps 737 mmHg 85%
23:00 +13°C° 0.1 mm 0 mps 737 mmHg 86%

Day after tomorrow, 26 October, Monday

Time Temperature Precipitation Wind Pressure Humidity
00:00 +13°C° 0.1 mm 0 mps 737 mmHg 87%
01:00 +13°C° 0.1 mm 0 mps 737 mmHg 88%
02:00 +13°C° 0.1 mm 0 mps 737 mmHg 89%
03:00 +12°C° 0 mm 0 mps 736 mmHg 90%
04:00 +12°C° 0 mm 0 mps 736 mmHg 91%
05:00 +12°C° 0 mm 0 mps 736 mmHg 92%
06:00 +12°C° 0 mm 0 mps 736 mmHg 91%
07:00 +12°C° 0 mm 0 mps 736 mmHg 91%
08:00 +12°C° 0 mm 0 mps 736 mmHg 91%
09:00 +13°C° 0 mm 0 mps 737 mmHg 84%
10:00 +16°C° 0 mm 1 mps 737 mmHg 77%
11:00 +18°C° 0 mm 1 mps 737 mmHg 70%
12:00 +19°C° 0 mm 1 mps 737 mmHg 66%
13:00 +20°C° 0 mm 1 mps 736 mmHg 62%
14:00 +21°C° 0 mm 1 mps 736 mmHg 57%
15:00 +20°C° 0 mm 1 mps 736 mmHg 61%
16:00 +19°C° 0 mm 1 mps 736 mmHg 65%
17:00 +18°C° 0 mm 1 mps 736 mmHg 69%
18:00 +16°C° 0 mm 1 mps 736 mmHg 73%
19:00 +15°C° 0 mm 1 mps 736 mmHg 76%
20:00 +14°C° 0 mm 1 mps 737 mmHg 79%
21:00 +13°C° 0 mm 0 mps 737 mmHg 80%
22:00 +12°C° 0 mm 0 mps 737 mmHg 81%
23:00 +12°C° 0 mm 0 mps 737 mmHg 82%

, 27 October, Tuesday

Time Temperature Precipitation Wind Pressure Humidity
00:00 +12°C° 0 mm 0 mps 737 mmHg 83%
01:00 +11°C° 0 mm 0 mps 737 mmHg 83%
02:00 +11°C° 0 mm 0 mps 737 mmHg 84%
03:00 +11°C° 0 mm 0 mps 737 mmHg 84%
04:00 +11°C° 0 mm 0 mps 737 mmHg 85%
05:00 +10°C° 0 mm 0 mps 737 mmHg 85%
06:00 +11°C° 0 mm 0 mps 737 mmHg 85%
07:00 +11°C° 0 mm 0 mps 737 mmHg 84%
08:00 +11°C° 0 mm 0 mps 737 mmHg 84%
09:00 +13°C° 0 mm 0 mps 737 mmHg 77%
10:00 +16°C° 0 mm 1 mps 737 mmHg 70%
11:00 +19°C° 0 mm 1 mps 737 mmHg 63%
12:00 +20°C° 0 mm 1 mps 737 mmHg 59%
13:00 +20°C° 0 mm 1 mps 736 mmHg 56%
14:00 +21°C° 0 mm 1 mps 736 mmHg 52%
15:00 +20°C° 0 mm 1 mps 736 mmHg 57%
16:00 +17°C° 0 mm 0 mps 736 mmHg 62%
17:00 +16°C° 0 mm 0 mps 736 mmHg 66%
18:00 +15°C° 0 mm 0 mps 736 mmHg 69%
19:00 +14°C° 0 mm 0 mps 736 mmHg 71%
20:00 +13°C° 0 mm 0 mps 736 mmHg 74%
21:00 +13°C° 0 mm 0 mps 736 mmHg 75%
22:00 +13°C° 0 mm 0 mps 737 mmHg 76%
23:00 +12°C° 0 mm 0 mps 737 mmHg 76%

27 October, Tuesday

Time Temperature Precipitation Wind Pressure Humidity
00:00 +12°C° 0 mm 0 mps 737 mmHg 83%
01:00 +11°C° 0 mm 0 mps 737 mmHg 83%
02:00 +11°C° 0 mm 0 mps 737 mmHg 84%
03:00 +11°C° 0 mm 0 mps 737 mmHg 84%
04:00 +11°C° 0 mm 0 mps 737 mmHg 85%
05:00 +10°C° 0 mm 0 mps 737 mmHg 85%
06:00 +11°C° 0 mm 0 mps 737 mmHg 85%
07:00 +11°C° 0 mm 0 mps 737 mmHg 84%
08:00 +11°C° 0 mm 0 mps 737 mmHg 84%
09:00 +13°C° 0 mm 0 mps 737 mmHg 77%
10:00 +16°C° 0 mm 1 mps 737 mmHg 70%
11:00 +19°C° 0 mm 1 mps 737 mmHg 63%
12:00 +20°C° 0 mm 1 mps 737 mmHg 59%
13:00 +20°C° 0 mm 1 mps 736 mmHg 56%
14:00 +21°C° 0 mm 1 mps 736 mmHg 52%
15:00 +20°C° 0 mm 1 mps 736 mmHg 57%
16:00 +17°C° 0 mm 0 mps 736 mmHg 62%
17:00 +16°C° 0 mm 0 mps 736 mmHg 66%
18:00 +15°C° 0 mm 0 mps 736 mmHg 69%
19:00 +14°C° 0 mm 0 mps 736 mmHg 71%
20:00 +13°C° 0 mm 0 mps 736 mmHg 74%
21:00 +13°C° 0 mm 0 mps 736 mmHg 75%
22:00 +13°C° 0 mm 0 mps 737 mmHg 76%
23:00 +12°C° 0 mm 0 mps 737 mmHg 76%

28 October, Wednesday

Time Temperature Precipitation Wind Pressure Humidity
00:00 +12°C° 0 mm 0 mps 737 mmHg 78%
01:00 +12°C° 0 mm 0 mps 737 mmHg 79%
02:00 +11°C° 0 mm 0 mps 737 mmHg 80%
03:00 +11°C° 0 mm 0 mps 737 mmHg 80%
04:00 +11°C° 0 mm 0 mps 737 mmHg 81%
05:00 +10°C° 0 mm 0 mps 737 mmHg 81%
06:00 +11°C° 0 mm 0 mps 737 mmHg 81%
07:00 +11°C° 0 mm 0 mps 737 mmHg 80%
08:00 +11°C° 0 mm 0 mps 737 mmHg 80%
09:00 +13°C° 0 mm 0 mps 737 mmHg 74%
10:00 +14°C° 0 mm 0 mps 737 mmHg 68%
11:00 +18°C° 0 mm 1 mps 738 mmHg 62%
12:00 +19°C° 0 mm 1 mps 738 mmHg 60%
13:00 +19°C° 0 mm 1 mps 737 mmHg 58%
14:00 +20°C° 0 mm 1 mps 737 mmHg 56%
15:00 +17°C° 0 mm 0 mps 737 mmHg 61%
16:00 +16°C° 0 mm 0 mps 737 mmHg 65%
17:00 +15°C° 0 mm 0 mps 737 mmHg 70%
18:00 +14°C° 0 mm 0 mps 737 mmHg 73%
19:00 +13°C° 0 mm 0 mps 738 mmHg 75%
20:00 +13°C° 0 mm 0 mps 738 mmHg 78%
21:00 +12°C° 0 mm 0 mps 738 mmHg 79%
22:00 +12°C° 0 mm 0 mps 738 mmHg 81%
23:00 +11°C° 0 mm 0 mps 738 mmHg 82%

29 October, Thursday

Time Temperature Precipitation Wind Pressure Humidity
00:00 +11°C° 0 mm 0 mps 738 mmHg 83%
01:00 +11°C° 0 mm 0 mps 738 mmHg 83%
02:00 +11°C° 0 mm 0 mps 738 mmHg 84%
03:00 +10°C° 0 mm 0 mps 738 mmHg 84%
04:00 +10°C° 0 mm 0 mps 738 mmHg 84%
05:00 +10°C° 0 mm 0 mps 739 mmHg 84%
06:00 +10°C° 0 mm 0 mps 739 mmHg 83%
07:00 +10°C° 0 mm 0 mps 739 mmHg 82%
08:00 +10°C° 0 mm 0 mps 739 mmHg 81%
09:00 +12°C° 0 mm 0 mps 739 mmHg 74%
10:00 +14°C° 0 mm 0 mps 739 mmHg 68%
11:00 +16°C° 0 mm 0 mps 740 mmHg 61%
12:00 +19°C° 0 mm 1 mps 740 mmHg 58%
13:00 +19°C° 0 mm 1 mps 740 mmHg 55%
14:00 +20°C° 0 mm 1 mps 740 mmHg 52%
15:00 +19°C° 0 mm 1 mps 740 mmHg 58%
16:00 +18°C° 0 mm 1 mps 740 mmHg 63%
17:00 +16°C° 0 mm 1 mps 740 mmHg 68%
18:00 +15°C° 0 mm 1 mps 741 mmHg 72%
19:00 +13°C° 0 mm 0 mps 741 mmHg 76%
20:00 +12°C° 0 mm 0 mps 741 mmHg 79%
21:00 +12°C° 0 mm 0 mps 742 mmHg 81%
22:00 +12°C° 0 mm 0 mps 742 mmHg 82%
23:00 +11°C° 0 mm 0 mps 742 mmHg 83%
Show more